When you browse on this site, cookies collect data to enhance your experience and personalize the content and advertising you see.
Visit our Privacy Policy to learn more. By continuing to use the site, you agree to this use of cookies and data.
EN

Hourly Weather Golabek

Today, 25 September, Friday

Time Temperature Precipitation Wind Pressure Humidity
00:00 +18°C° 0 mm 1 mps 744 mmHg 83%
01:00 +16°C° 0 mm 1 mps 744 mmHg 81%
02:00 +16°C° 0 mm 1 mps 744 mmHg 82%
03:00 +16°C° 0 mm 2 mps 743 mmHg 83%
04:00 +15°C° 0 mm 2 mps 743 mmHg 84%
05:00 +16°C° 0.1 mm 2 mps 742 mmHg 82%
06:00 +16°C° 0.1 mm 3 mps 742 mmHg 81%
07:00 +15°C° 0.1 mm 4 mps 741 mmHg 79%
08:00 +18°C° 0.1 mm 4 mps 741 mmHg 72%
09:00 +20°C° 0.1 mm 5 mps 740 mmHg 66%
10:00 +22°C° 0.1 mm 6 mps 740 mmHg 60%
11:00 +23°C° 0 mm 6 mps 739 mmHg 55%
12:00 +24°C° 0 mm 7 mps 739 mmHg 50%
13:00 +26°C° 0 mm 7 mps 738 mmHg 45%
14:00 +23°C° 0.6 mm 7 mps 738 mmHg 54%
15:00 +22°C° 0.6 mm 6 mps 737 mmHg 63%
16:00 +20°C° 0.6 mm 6 mps 737 mmHg 73%
17:00 +19°C° 1.9 mm 5 mps 737 mmHg 79%
18:00 +18°C° 1.9 mm 4 mps 737 mmHg 85%
19:00 +17°C° 1.9 mm 2 mps 737 mmHg 91%
20:00 +16°C° 0.7 mm 2 mps 737 mmHg 91%
21:00 +16°C° 0.7 mm 2 mps 738 mmHg 91%
22:00 +16°C° 0.7 mm 2 mps 738 mmHg 91%
23:00 +15°C° 0 mm 2 mps 738 mmHg 92%

Tomorrow, 26 September, Saturday

Time Temperature Precipitation Wind Pressure Humidity
00:00 +14°C° 0 mm 2 mps 738 mmHg 93%
01:00 +14°C° 0 mm 1 mps 738 mmHg 95%
02:00 +14°C° 0 mm 2 mps 737 mmHg 95%
03:00 +14°C° 0 mm 2 mps 737 mmHg 95%
04:00 +14°C° 0 mm 2 mps 737 mmHg 96%
05:00 +13°C° 0 mm 3 mps 737 mmHg 95%
06:00 +13°C° 0 mm 3 mps 737 mmHg 95%
07:00 +14°C° 0 mm 4 mps 736 mmHg 94%
08:00 +15°C° 0 mm 4 mps 736 mmHg 90%
09:00 +18°C° 0 mm 4 mps 736 mmHg 85%
10:00 +19°C° 0 mm 4 mps 736 mmHg 81%
11:00 +19°C° 0.2 mm 4 mps 736 mmHg 79%
12:00 +20°C° 0.2 mm 4 mps 736 mmHg 78%
13:00 +20°C° 0.2 mm 4 mps 736 mmHg 76%
14:00 +19°C° 0.2 mm 5 mps 736 mmHg 80%
15:00 +19°C° 0.2 mm 5 mps 736 mmHg 84%
16:00 +17°C° 0.2 mm 5 mps 736 mmHg 88%
17:00 +18°C° 0.3 mm 4 mps 737 mmHg 89%
18:00 +17°C° 0.3 mm 4 mps 737 mmHg 91%
19:00 +17°C° 0.3 mm 3 mps 737 mmHg 92%
20:00 +17°C° 0.3 mm 2 mps 738 mmHg 91%
21:00 +16°C° 0.3 mm 2 mps 738 mmHg 91%
22:00 +16°C° 0.3 mm 1 mps 739 mmHg 90%
23:00 +16°C° 0.2 mm 1 mps 739 mmHg 88%

Day after tomorrow, 27 September, Sunday

Time Temperature Precipitation Wind Pressure Humidity
00:00 +15°C° 0.2 mm 1 mps 739 mmHg 87%
01:00 +15°C° 0.2 mm 1 mps 739 mmHg 85%
02:00 +14°C° 0.4 mm 2 mps 739 mmHg 87%
03:00 +14°C° 0.4 mm 2 mps 739 mmHg 88%
04:00 +14°C° 0.4 mm 2 mps 739 mmHg 90%
05:00 +12°C° 0.9 mm 3 mps 739 mmHg 91%
06:00 +12°C° 0.9 mm 3 mps 740 mmHg 92%
07:00 +12°C° 0.9 mm 3 mps 740 mmHg 93%
08:00 +13°C° 1.1 mm 2 mps 740 mmHg 93%
09:00 +14°C° 1.1 mm 2 mps 740 mmHg 92%
10:00 +14°C° 1.1 mm 2 mps 740 mmHg 92%
11:00 +15°C° 0.3 mm 2 mps 740 mmHg 91%
12:00 +16°C° 0.3 mm 2 mps 740 mmHg 90%
13:00 +16°C° 0.3 mm 2 mps 740 mmHg 89%
14:00 +17°C° 0.2 mm 2 mps 740 mmHg 87%
15:00 +17°C° 0.2 mm 2 mps 740 mmHg 84%
16:00 +17°C° 0.2 mm 2 mps 740 mmHg 82%
17:00 +17°C° 0.2 mm 2 mps 740 mmHg 82%
18:00 +17°C° 0.2 mm 3 mps 740 mmHg 81%
19:00 +17°C° 0.2 mm 3 mps 740 mmHg 80%
20:00 +17°C° 0.1 mm 3 mps 740 mmHg 81%
21:00 +16°C° 0.1 mm 3 mps 740 mmHg 82%
22:00 +16°C° 0.1 mm 3 mps 741 mmHg 83%
23:00 +16°C° 0 mm 3 mps 741 mmHg 85%

28 September, Monday

Time Temperature Precipitation Wind Pressure Humidity
00:00 +14°C° 0 mm 3 mps 741 mmHg 87%
01:00 +14°C° 0 mm 4 mps 741 mmHg 89%
02:00 +13°C° 0 mm 3 mps 741 mmHg 90%
03:00 +12°C° 0 mm 3 mps 741 mmHg 90%
04:00 +11°C° 0 mm 3 mps 741 mmHg 90%
05:00 +11°C° 0 mm 4 mps 741 mmHg 88%
06:00 +11°C° 0 mm 4 mps 742 mmHg 87%
07:00 +12°C° 0 mm 4 mps 742 mmHg 85%
08:00 +12°C° 0.1 mm 4 mps 742 mmHg 86%
09:00 +12°C° 0.1 mm 3 mps 742 mmHg 87%
10:00 +12°C° 0.1 mm 3 mps 743 mmHg 87%
11:00 +12°C° 0.2 mm 3 mps 743 mmHg 88%
12:00 +12°C° 0.2 mm 3 mps 743 mmHg 88%
13:00 +12°C° 0.2 mm 3 mps 743 mmHg 88%
14:00 +12°C° 0.4 mm 4 mps 744 mmHg 89%
15:00 +10°C° 0.4 mm 5 mps 744 mmHg 90%
16:00 +10°C° 0.4 mm 6 mps 744 mmHg 91%
17:00 +10°C° 0.5 mm 6 mps 744 mmHg 90%
18:00 +10°C° 0.5 mm 5 mps 745 mmHg 90%
19:00 +9°C° 0.5 mm 5 mps 745 mmHg 90%
20:00 +9°C° 0.3 mm 5 mps 745 mmHg 88%
21:00 +10°C° 0.3 mm 5 mps 745 mmHg 86%
22:00 +10°C° 0.3 mm 5 mps 745 mmHg 84%
23:00 +9°C° 0.1 mm 5 mps 746 mmHg 85%

29 September, Tuesday

Time Temperature Precipitation Wind Pressure Humidity
00:00 +10°C° 0.1 mm 4 mps 746 mmHg 85%
01:00 +10°C° 0.1 mm 4 mps 746 mmHg 86%
02:00 +8°C° 0.1 mm 4 mps 746 mmHg 86%
03:00 +8°C° 0.1 mm 4 mps 746 mmHg 87%
04:00 +8°C° 0.1 mm 4 mps 746 mmHg 88%
05:00 +9°C° 0.1 mm 3 mps 746 mmHg 88%
06:00 +9°C° 0.1 mm 3 mps 746 mmHg 88%
07:00 +9°C° 0.1 mm 3 mps 747 mmHg 88%
08:00 +10°C° 0 mm 3 mps 747 mmHg 83%
09:00 +12°C° 0 mm 3 mps 747 mmHg 78%
10:00 +13°C° 0 mm 3 mps 747 mmHg 73%
11:00 +15°C° 0 mm 2 mps 748 mmHg 68%
12:00 +16°C° 0 mm 2 mps 748 mmHg 63%
13:00 +17°C° 0 mm 2 mps 748 mmHg 59%
14:00 +18°C° 0 mm 1 mps 748 mmHg 59%
15:00 +18°C° 0 mm 1 mps 748 mmHg 59%
16:00 +18°C° 0 mm 1 mps 748 mmHg 60%
17:00 +15°C° 0 mm 1 mps 748 mmHg 66%
18:00 +14°C° 0 mm 1 mps 749 mmHg 72%
19:00 +13°C° 0 mm 1 mps 749 mmHg 77%
20:00 +12°C° 0 mm 1 mps 749 mmHg 80%
21:00 +12°C° 0 mm 1 mps 749 mmHg 83%
22:00 +12°C° 0 mm 1 mps 750 mmHg 86%
23:00 +12°C° 0 mm 1 mps 750 mmHg 86%

30 September, Wednesday

Time Temperature Precipitation Wind Pressure Humidity
00:00 +12°C° 0 mm 2 mps 750 mmHg 86%
01:00 +12°C° 0 mm 2 mps 750 mmHg 86%
02:00 +12°C° 0 mm 2 mps 750 mmHg 86%
03:00 +12°C° 0 mm 2 mps 750 mmHg 86%
04:00 +12°C° 0 mm 2 mps 750 mmHg 87%
05:00 +13°C° 0 mm 2 mps 750 mmHg 88%
06:00 +13°C° 0 mm 2 mps 750 mmHg 90%
07:00 +13°C° 0 mm 3 mps 750 mmHg 91%
08:00 +13°C° 0 mm 3 mps 750 mmHg 89%
09:00 +14°C° 0 mm 3 mps 750 mmHg 86%
10:00 +16°C° 0 mm 3 mps 750 mmHg 84%
11:00 +17°C° 0 mm 3 mps 750 mmHg 79%
12:00 +17°C° 0 mm 2 mps 750 mmHg 75%
13:00 +18°C° 0 mm 2 mps 749 mmHg 71%
14:00 +18°C° 0 mm 2 mps 749 mmHg 72%
15:00 +18°C° 0 mm 3 mps 749 mmHg 72%
16:00 +18°C° 0 mm 3 mps 749 mmHg 72%
17:00 +17°C° 0 mm 3 mps 749 mmHg 78%
18:00 +16°C° 0 mm 3 mps 749 mmHg 83%
19:00 +14°C° 0 mm 3 mps 749 mmHg 88%
20:00 +14°C° 0 mm 2 mps 749 mmHg 90%
21:00 +13°C° 0 mm 2 mps 749 mmHg 92%
22:00 +13°C° 0 mm 2 mps 749 mmHg 94%
23:00 +12°C° 0 mm 2 mps 748 mmHg 93%
Show more